Weather History for Danbury, CT

Change the Weather History Date:

Wednesday, June 26, 2013

  Actual Average Record
Temperature  
Mean Temperature 74 °F -  
Max Temperature 80 °F 80 °F 97 °F (1952)
Min Temperature 69 °F 58 °F 40 °F (1979)
Cooling Degree Days 10    
Growing Degree Days 24 (Base 50)    
Moisture  
Dew Point 66 °F    
Average Humidity 77    
Maximum Humidity 93    
Minimum Humidity 64    
Precipitation  
Precipitation 0.04 in - - ()
Sea Level Pressure  
Sea Level Pressure 29.82 in    
Wind  
Wind Speed 4 mph (WSW)    
Max Wind Speed 12 mph    
Max Gust Speed -    
Visibility 8 miles    
Events Rain    
Averages and records for this station are not official NWS values.
T = Trace of Precipitation, MM = Missing Value Source: NWS Daily Summary

Daily Weather History Graph

Daily Weather History Graph

Search for Another Location

Airport:

Trip Planner

Search our weather history database for the weather conditions in past years. The results will help you decide how hot, cold, wet, or windy it might be!

Date:

Astronomy

Jun. 26, 2013 Rise Set
Actual Time 5:22 AM EDT 8:31 PM EDT
Civil Twilight 4:48 AM EDT 9:05 PM EDT
Nautical Twilight 4:04 AM EDT 9:48 PM EDT
Astronomical Twilight 3:12 AM EDT 10:40 PM EDT
Moon 10:49 PM EDT (6/26) 9:13 AM EDT (6/26)
Length of Visible Light 16h 17m
Length of Day
15h 09m
Waning Gibbous, 85% of the Moon is Illuminated
Jun 26
Waning Gibbous
Jun 30
Last Quarter
Jul 8
New
Jul 15
First Quarter
Jul 22
Full

Hourly Weather History & Observations

Time (EDT) Temp. Heat Index Dew Point Humidity Pressure Visibility Wind Dir Wind Speed Gust Speed Precip Events Conditions
12:53 AM 77.0 °F - 64.9 °F 66% 29.80 in 9.0 mi West 3.5 mph - N/A   Clear
1:53 AM 72.0 °F - 66.0 °F 81% 29.79 in 8.0 mi Calm Calm - N/A   Mostly Cloudy
2:53 AM 71.1 °F - 66.0 °F 84% 29.77 in 8.0 mi Calm Calm - N/A   Clear
3:53 AM 71.1 °F - 66.0 °F 84% 29.78 in 7.0 mi SW 3.5 mph - N/A   Clear
4:53 AM 73.0 °F - 66.0 °F 79% 29.78 in 9.0 mi WSW 6.9 mph - N/A   Clear
5:53 AM 73.0 °F - 66.0 °F 79% 29.80 in 7.0 mi WSW 5.8 mph - N/A   Clear
6:53 AM 73.9 °F - 66.0 °F 76% 29.81 in 7.0 mi WSW 8.1 mph - N/A   Clear
7:53 AM 73.9 °F - 66.0 °F 76% 29.83 in 8.0 mi WSW 4.6 mph - N/A   Clear
8:53 AM 77.0 °F - 64.9 °F 66% 29.83 in 9.0 mi Variable 5.8 mph - N/A   Clear
9:53 AM 78.1 °F - 64.9 °F 64% 29.83 in 10.0 mi WSW 9.2 mph - N/A   Clear
10:53 AM 77.0 °F - 64.0 °F 64% 29.83 in 10.0 mi WNW 4.6 mph - N/A   Clear
11:53 AM 77.0 °F - 64.9 °F 66% 29.83 in 9.0 mi WSW 11.5 mph - N/A   Clear
12:53 PM 78.1 °F - 66.9 °F 68% 29.85 in 10.0 mi WSW 6.9 mph - 0.00 in   Scattered Clouds
1:53 PM 77.0 °F - 66.9 °F 71% 29.85 in 10.0 mi SW 5.8 mph - 0.00 in Rain Light Rain
2:53 PM 80.1 °F 82.3 °F 66.9 °F 64% 29.83 in 10.0 mi WSW 9.2 mph - 0.00 in   Clear
3:53 PM 79.0 °F - 66.9 °F 66% 29.83 in 10.0 mi WSW 9.2 mph - N/A   Clear
4:53 PM 79.0 °F - 66.9 °F 66% 29.82 in 10.0 mi WSW 8.1 mph - N/A   Clear
5:53 PM 78.1 °F - 66.9 °F 68% 29.82 in 10.0 mi WSW 3.5 mph - N/A   Partly Cloudy
6:53 PM 75.0 °F - 69.1 °F 82% 29.82 in 5.0 mi Calm Calm - 0.00 in Rain Light Rain
7:53 PM 73.0 °F - 70.0 °F 90% 29.83 in 5.0 mi Calm Calm - 0.02 in Rain Light Rain
8:53 PM 73.0 °F - 68.0 °F 84% 29.81 in 9.0 mi South 4.6 mph - 0.02 in   Mostly Cloudy
9:53 PM 71.1 °F - 68.0 °F 90% 29.83 in 6.0 mi Calm Calm - N/A   Scattered Clouds
10:40 PM 69.8 °F - 66.2 °F 88% 29.85 in 2.0 mi Calm Calm - N/A   Clear
10:50 PM 69.8 °F - 66.2 °F 88% 29.86 in 4.0 mi Calm Calm - N/A   Clear
10:53 PM 70.0 °F - 66.9 °F 90% 29.85 in 4.0 mi Calm Calm - N/A   Clear
11:53 PM 69.1 °F - 66.9 °F 93% 29.84 in 5.0 mi Calm Calm - N/A   Clear